Temp_Advection
nan nan nan nan nan nan nan nan nan nan nan nan nan nan nan nan nan nan nan nan nan nan nan nan nan nan nan nan nan nan nan nan nan nan nan nan nan nan nan nan nan nan
nan -0 -0 -0 -0 -0 -0 -0 -0 -0 -0 -0 -0 -0 -0 -0 -0 -0 -0 -0 -0 0 0 0 -0 -0 -0 0 -0 -0 -0 -0 -0 -0 -0 -0 -0 -0 -0 -0 -0 nan
nan -0 -0 -1 -1 -1 -1 -0 -0 -0 -0 0 -0 -0 -0 0 0 0 -0 -0 -0 0 0 0 -0 -0 -0 -0 -0 -0 -0 0 0 -0 -0 -0 -0 -0 -0 0 0 nan
nan -0 -0 -0 -0 -0 -0 0 -0 -1 -0 -0 -1 -1 -0 0 0 0 0 -0 -0 0 0 -0 -0 -0 0 0 -0 -0 -0 0 0 -0 -0 -0 -0 -0 -0 0 -0 nan
nan 0 0 -0 -0 0 0 -1 -1 -1 -1 -1 -0 -0 -0 -0 -0 -0 -0 -0 -0 -0 -0 -0 -0 -0 0 0 0 -0 0 0 0 -0 -0 -0 -0 -0 0 -0 -0 nan
nan 0 0 0 0 0 -0 -1 -1 -1 -1 -0 -0 -0 -0 -0 -0 -0 -0 -0 -0 -0 -0 -0 -0 -0 -0 -0 0 0 0 0 0 -0 -0 -0 0 0 -0 -0 -0 nan
nan 0 0 0 0 0 -0 -1 -0 -0 -0 -0 0 -0 -0 -0 -0 -0 -0 -0 -0 -0 -0 -0 -0 -0 -0 -0 -0 0 0 0 0 -0 -0 -0 -0 -0 -0 -0 -0 nan
nan 0 0 0 0 0 -0 -0 -0 -1 -0 0 -0 -0 -0 -0 -0 -0 -0 -0 -0 -0 -0 -0 -0 -0 0 0 -0 0 0 0 0 -0 -0 -0 -0 -0 -0 -0 -0 nan
nan -0 0 0 0 -0 -0 -0 -0 -0 -0 -0 -0 -0 -0 -0 -0 0 0 0 0 -0 -0 -0 -0 -0 0 0 -0 0 0 0 0 0 -0 -0 -0 -0 0 0 -0 nan
nan -0 -0 -0 -0 -0 -0 -0 -0 -0 -0 -1 -0 -0 -0 -0 0 0 0 0 0 -0 -0 -0 -0 -0 -0 -0 -0 0 0 0 0 0 0 -0 -0 -0 0 0 -0 nan
nan -0 -1 -1 -0 -0 -0 0 0 0 -0 -1 -0 -0 -0 -0 0 0 0 0 -0 -0 0 -0 -0 -0 -0 -0 -0 0 0 0 0 0 0 0 0 -0 0 0 -0 nan
nan -0 -1 -1 -0 -0 -0 0 1 0 -0 -1 -1 -0 -0 -0 -0 -0 -0 -0 -0 -0 0 0 0 -0 -0 -0 -0 0 0 0 0 0 0 0 0 0 0 0 -0 nan
nan -1 -1 -0 -0 -0 0 0 0 1 0 -0 -0 -0 -0 -1 -1 -0 -0 -0 -0 -0 -0 -0 0 0 -0 -0 -0 -0 0 0 0 0 0 0 0 0 0 0 -0 nan
nan -0 -0 -0 0 0 0 -0 -0 0 0 1 1 0 -1 -1 -1 -1 -0 -0 -0 -0 -0 0 0 0 -0 -0 -0 -0 0 0 0 0 0 0 0 0 0 0 0 nan
nan 0 0 0 0 0 0 0 0 0 0 1 1 0 0 -0 -0 -0 -1 -1 -0 -0 0 0 -0 -0 -0 -0 -0 -0 0 0 0 0 0 0 0 0 0 0 -0 nan
nan 0 0 0 -0 -0 0 0 0 0 0 -0 -0 -0 0 0 0 0 -1 -1 -1 -1 -0 -0 -0 -1 -1 -0 -0 0 0 0 0 0 0 0 0 0 0 -0 -0 nan
nan -0 -0 -0 -0 -0 0 0 0 1 0 0 0 -0 -0 0 0 0 -1 -1 -1 -1 -1 -0 -1 -0 -0 -0 -0 0 0 1 0 0 1 1 0 0 -0 -0 -0 nan
nan -0 -0 -0 -0 -0 0 0 1 1 0 0 0 0 0 0 -0 -1 -0 -0 -0 -1 -1 -1 -1 -0 -0 -0 -0 0 1 1 1 0 0 0 0 0 0 0 -0 nan
nan -0 -0 -0 -0 0 1 1 1 0 0 0 0 1 1 0 -0 -0 -1 -0 -0 -1 -2 -1 -1 -0 0 0 -0 0 1 1 1 1 0 -0 0 0 0 0 0 nan
nan -0 -1 -0 0 1 1 0 -0 -1 -0 0 1 1 1 0 0 0 -0 -1 -1 -1 -1 -1 -1 -1 0 0 -0 0 1 1 1 1 0 -0 -0 0 0 0 0 nan
nan -0 -0 -0 0 1 1 -0 -1 -0 -0 0 1 1 0 1 1 0 -0 -1 -1 -1 -1 -3 -2 -1 0 0 0 0 1 1 1 1 0 -0 -0 -0 -0 -0 -0 nan
nan 0 0 0 0 0 0 -0 -0 -0 0 1 1 0 0 1 0 -0 -0 -1 -0 -0 -2 -4 -3 -1 0 0 1 1 2 2 1 1 1 -0 -1 -0 -0 -1 -0 nan
nan 1 1 1 1 0 -0 -0 -0 0 1 1 1 0 0 -0 -0 -0 0 0 0 -0 -2 -4 -3 -1 0 0 1 2 2 1 1 1 1 -0 -1 -0 -0 -1 -1 nan
nan 0 0 1 0 -0 -0 -0 0 0 1 1 0 -0 -0 -0 -0 -0 -0 0 0 -1 -2 -3 -3 -1 0 0 1 2 2 1 1 1 1 -0 -0 -0 -0 -1 -1 nan
nan 0 0 -0 -0 -1 -0 0 0 0 0 0 0 -0 -0 0 0 -0 -1 -0 -0 -0 -0 -2 -3 -1 0 -0 1 2 2 1 1 1 0 -0 -0 0 -0 -0 -1 nan
nan nan nan nan nan nan nan nan nan nan nan nan nan nan nan nan nan nan nan nan nan nan nan nan nan nan nan nan nan nan nan nan nan nan nan nan nan nan nan nan nan nan
Wind_Speed
33 33 34 35 34 32 30 28 27 26 25 23 23 23 22 20 19 19 18 16 15 15 14 14 14 14 13 13 14 13 12 11 10 8 9 10 10 11 11 10 11 11
34 34 35 35 35 33 31 30 28 27 26 25 24 24 22 20 20 20 19 17 16 15 15 14 14 14 14 13 13 14 13 12 12 11 10 11 11 11 10 10 12 13
36 36 36 36 36 35 33 31 29 27 26 25 25 24 23 21 20 20 19 18 17 16 16 16 15 14 14 14 14 14 13 13 12 11 11 11 11 12 11 10 12 14
38 38 37 37 36 35 34 32 31 28 27 26 26 25 24 22 20 20 20 19 19 18 17 17 16 16 15 15 15 15 14 13 12 12 12 11 11 11 12 11 12 14
39 39 39 38 37 36 35 35 32 30 28 27 26 26 24 23 22 21 21 20 19 19 18 18 18 17 16 16 17 16 15 14 13 13 13 12 12 12 12 13 13 13
40 41 41 40 39 38 37 36 34 31 29 27 27 26 25 24 23 22 22 21 20 19 18 18 18 18 18 18 18 18 17 16 15 15 15 14 13 13 13 13 14 14
40 41 42 42 41 40 39 38 35 33 30 28 28 27 26 25 24 23 23 22 20 19 18 17 17 17 18 18 19 19 18 18 18 18 18 17 16 15 15 14 15 15
40 41 42 43 43 42 41 40 38 36 33 31 30 29 27 26 25 25 24 23 22 21 20 19 19 18 18 19 19 19 19 19 19 19 20 19 18 17 17 16 16 16
41 41 42 43 45 45 44 42 41 39 37 35 33 31 30 29 28 27 26 25 25 24 23 22 21 20 20 20 20 21 20 20 20 20 21 21 20 19 18 18 18 18
42 42 42 43 45 46 46 45 44 43 41 39 36 34 33 32 31 30 29 28 27 26 25 24 23 23 23 22 22 22 22 22 21 21 21 21 21 21 20 20 20 20
42 42 43 44 45 46 47 47 46 46 45 43 41 39 37 35 34 33 32 31 31 30 29 28 26 25 25 25 24 22 22 22 22 23 23 23 22 21 20 20 20 21
42 41 43 44 45 46 46 46 47 47 47 46 45 43 41 39 38 36 36 35 34 33 32 31 29 29 28 27 26 25 24 22 22 23 23 24 24 23 22 21 20 20
42 41 41 42 43 45 45 46 46 47 48 48 47 46 45 43 42 40 39 38 37 36 35 33 32 32 31 29 28 28 26 25 23 23 23 24 25 25 25 24 22 21
43 41 40 39 40 41 43 45 46 47 48 48 48 48 48 46 45 43 41 40 39 38 37 36 35 34 33 32 31 30 29 28 26 25 24 24 24 25 25 26 25 24
43 42 41 39 39 39 40 42 44 46 47 47 48 49 49 48 47 45 44 43 41 40 39 38 38 37 35 34 33 32 31 30 28 27 26 25 25 25 25 26 26 25
45 44 42 41 40 40 39 40 41 43 45 46 48 48 49 48 48 47 46 45 44 42 41 41 40 39 37 35 34 33 32 32 31 30 29 28 27 26 26 26 26 26
46 45 44 43 42 41 40 40 40 40 42 44 45 47 47 48 49 49 48 47 46 45 44 43 42 41 39 38 36 35 35 34 33 32 30 30 29 28 27 27 26 27
46 46 45 45 44 43 42 41 40 41 41 42 43 44 45 46 48 49 49 48 48 47 46 45 44 42 41 40 39 38 37 36 35 33 32 31 30 29 29 28 27 27
45 46 46 45 45 44 43 42 42 42 42 41 42 42 43 45 46 47 48 48 48 48 47 46 45 43 42 42 41 39 38 37 36 35 33 32 30 30 29 29 29 28
44 45 45 45 45 44 44 44 44 43 41 40 40 40 41 43 44 45 46 46 47 47 46 46 44 43 42 41 41 39 38 38 37 36 34 33 31 30 29 29 29 29
43 44 45 45 44 44 45 44 44 43 41 40 39 39 39 39 41 43 44 45 45 45 45 45 43 41 40 40 40 38 38 37 37 36 35 34 32 31 30 30 29 29
42 43 44 45 44 44 45 44 44 43 41 40 39 39 38 37 37 38 40 42 43 44 44 44 42 40 39 39 38 38 37 38 37 37 36 35 34 32 31 30 29 29
41 42 43 44 44 44 45 44 44 43 42 41 40 40 39 38 37 35 36 39 41 42 43 43 41 39 38 38 37 37 38 38 38 37 37 36 34 33 32 31 30 30
37 39 42 43 43 44 44 44 43 43 42 42 41 41 41 39 38 36 35 36 38 40 41 42 41 39 38 37 37 37 38 38 38 37 37 36 35 33 33 32 32 31
34 35 38 40 42 43 44 44 44 43 42 42 42 42 41 40 39 38 37 36 36 38 39 41 40 39 38 37 36 36 37 37 37 38 37 36 35 34 33 33 32 32
33 34 36 38 40 42 43 43 43 43 42 42 42 42 41 40 40 40 39 38 37 37 38 39 39 38 38 37 36 36 36 37 37 38 37 35 34 33 33 33 33 32
Wind_Direction
219 216 215 217 219 221 222 222 223 224 223 220 219 218 216 215 213 213 214 215 214 215 215 214 215 220 223 224 225 221 214 213 213 217 230 234 234 235 232 228 219 211
220 217 216 218 220 222 223 224 226 227 225 223 222 220 219 217 216 215 215 216 216 216 218 219 219 222 226 228 230 229 225 225 224 221 227 231 231 233 233 228 219 212
220 218 216 218 220 222 223 224 225 226 227 226 223 221 222 221 219 218 218 217 217 216 217 221 222 223 227 231 234 236 234 233 234 232 232 233 233 235 235 230 222 220
220 219 218 219 221 222 222 222 223 224 226 227 223 220 222 223 223 221 220 220 218 217 218 222 225 225 228 232 236 240 241 239 240 241 240 240 241 243 241 238 232 229
221 221 220 221 222 223 222 223 224 224 225 225 224 222 221 223 225 223 220 219 219 219 219 222 227 228 228 232 235 239 242 243 244 246 246 244 245 248 246 245 245 240
223 223 222 223 224 224 224 225 226 226 225 224 225 225 223 222 224 223 220 220 222 223 224 226 230 231 231 232 234 237 240 242 244 248 250 250 250 251 249 248 250 250
225 224 224 225 225 226 227 228 228 228 228 226 226 227 226 224 224 223 223 225 228 231 233 234 235 237 236 235 235 237 239 241 242 245 250 253 253 254 253 253 253 253
227 226 226 226 227 227 228 230 231 231 231 230 229 229 230 230 229 229 229 231 234 237 239 241 242 244 244 242 241 241 241 242 243 244 247 251 253 254 256 256 256 256
230 229 228 228 228 229 229 231 232 233 233 233 233 233 234 235 235 235 236 237 239 240 242 244 246 248 249 247 246 245 245 245 246 247 248 250 252 255 257 258 259 259
233 232 231 230 229 230 231 231 232 234 236 236 236 236 237 238 239 240 241 242 243 244 245 246 248 249 251 250 249 248 249 249 250 250 251 252 253 255 257 258 260 262
234 234 233 232 231 231 232 233 233 234 236 238 238 238 239 240 240 242 244 245 246 247 248 249 250 252 252 252 252 251 251 251 252 252 254 255 255 256 256 257 259 262
234 235 235 235 233 232 233 234 234 234 236 238 239 240 240 241 242 243 244 246 248 249 251 252 254 255 256 255 254 254 254 254 254 254 255 256 257 257 257 257 258 261
235 236 237 237 237 236 235 235 236 236 237 238 240 241 241 242 243 244 245 247 248 250 251 253 255 257 258 258 257 257 257 258 257 257 257 258 259 259 259 258 257 258
236 237 239 239 240 239 239 238 238 239 240 240 241 242 242 243 244 245 246 247 249 250 252 253 255 256 258 258 259 259 260 260 261 261 260 260 260 260 260 259 257 256
237 238 239 240 241 241 241 241 240 241 242 243 243 244 245 245 246 247 248 249 250 251 253 254 255 256 256 257 258 259 261 262 263 264 263 261 260 260 260 260 258 256
238 239 240 240 241 242 242 243 243 243 243 244 245 246 247 248 248 249 249 250 252 253 254 255 256 257 257 257 258 259 262 264 265 266 265 263 261 260 260 260 258 257
238 239 240 241 242 243 244 244 245 245 245 246 247 247 249 249 250 250 251 252 253 254 256 257 257 258 258 258 259 260 261 263 265 266 266 264 262 261 260 260 259 258
238 239 240 242 243 244 245 245 246 246 247 247 248 248 249 250 250 252 252 253 254 255 256 258 259 259 260 261 261 262 263 263 264 265 265 264 263 261 261 261 261 259
238 240 241 243 245 245 245 246 246 247 247 248 249 250 251 251 252 253 253 254 254 255 256 258 259 260 261 262 263 263 264 264 263 263 263 263 263 262 261 261 261 261
239 240 242 245 246 246 246 246 246 247 248 249 250 251 252 253 254 254 254 255 254 255 256 258 259 260 261 262 263 264 264 264 263 263 263 263 263 263 262 262 262 262
239 240 242 244 246 246 246 247 248 249 250 250 250 251 252 254 255 255 255 256 255 255 256 257 258 259 260 261 262 263 263 264 263 263 262 262 262 263 263 263 262 263
241 241 242 243 244 244 245 246 248 249 250 250 250 250 252 254 255 256 256 256 255 255 255 256 257 257 259 260 261 262 263 263 263 263 263 262 262 261 262 262 262 261
242 242 242 242 242 242 244 246 248 250 250 250 250 250 251 252 254 256 258 257 256 255 254 255 256 256 257 258 259 261 262 262 263 263 263 263 262 260 261 262 261 260
238 240 241 241 241 242 245 247 248 249 251 251 251 251 252 253 254 256 259 259 257 256 254 254 255 256 256 257 259 260 261 262 262 263 263 264 263 261 261 262 261 260
233 236 238 239 241 244 246 248 249 250 251 251 252 253 253 254 254 255 257 259 259 258 256 255 256 256 256 256 257 258 260 260 261 262 262 262 262 260 260 261 261 260
235 236 237 238 240 243 245 247 249 250 251 251 252 253 253 253 254 254 255 258 259 259 257 256 256 256 256 256 256 257 258 258 259 260 260 260 260 259 259 259 259 259
Height
1560 1562 1564 1566 1567 1569 1570 1572 1574 1575 1577 1578 1579 1581 1582 1584 1585 1586 1587 1589 1590 1591 1592 1593 1593 1594 1595 1595 1596 1596 1597 1598 1598 1599 1599 1600 1600 1600 1601 1601 1602 1602
1558 1560 1562 1564 1566 1567 1569 1570 1572 1574 1575 1577 1578 1580 1582 1583 1584 1585 1587 1588 1589 1590 1591 1592 1593 1593 1594 1595 1595 1596 1597 1597 1598 1598 1599 1599 1600 1600 1601 1601 1602 1602
1555 1558 1560 1562 1563 1565 1567 1569 1571 1572 1574 1576 1577 1579 1581 1582 1583 1584 1586 1587 1588 1589 1590 1591 1592 1593 1593 1594 1595 1595 1596 1597 1597 1598 1598 1599 1600 1600 1600 1601 1601 1602
1552 1555 1557 1560 1562 1564 1566 1567 1569 1570 1572 1574 1576 1578 1579 1580 1582 1583 1585 1586 1587 1588 1589 1590 1591 1592 1592 1593 1594 1595 1595 1596 1597 1598 1598 1599 1599 1600 1600 1600 1601 1601
1550 1552 1555 1557 1560 1562 1564 1565 1567 1568 1570 1572 1574 1576 1578 1579 1581 1582 1583 1585 1586 1587 1588 1589 1590 1591 1591 1592 1593 1594 1594 1595 1596 1597 1597 1598 1599 1599 1600 1600 1600 1600
1548 1550 1553 1555 1558 1560 1562 1563 1565 1567 1568 1570 1572 1574 1576 1577 1579 1580 1582 1583 1585 1586 1587 1588 1589 1589 1590 1591 1592 1593 1593 1594 1595 1596 1596 1597 1598 1598 1599 1599 1599 1600
1545 1548 1551 1553 1556 1558 1560 1561 1563 1565 1567 1568 1570 1572 1574 1575 1577 1579 1580 1582 1583 1584 1585 1586 1587 1588 1589 1590 1591 1591 1592 1593 1594 1595 1595 1596 1597 1597 1598 1598 1599 1599
1543 1546 1548 1551 1553 1555 1557 1559 1561 1563 1565 1567 1568 1570 1572 1573 1575 1577 1578 1580 1581 1582 1584 1585 1586 1587 1588 1589 1589 1590 1591 1592 1593 1593 1594 1595 1595 1596 1596 1597 1598 1598
1541 1543 1546 1548 1550 1553 1555 1557 1559 1561 1563 1564 1566 1568 1570 1571 1573 1575 1576 1578 1579 1580 1582 1583 1584 1585 1586 1587 1588 1589 1589 1590 1591 1592 1593 1593 1594 1595 1595 1596 1596 1597
1538 1540 1543 1545 1547 1549 1551 1554 1556 1558 1560 1562 1564 1566 1567 1569 1571 1572 1574 1576 1577 1578 1579 1581 1582 1583 1584 1586 1586 1587 1588 1589 1590 1590 1591 1592 1593 1593 1594 1595 1595 1596
1535 1537 1539 1541 1543 1545 1548 1551 1553 1556 1558 1560 1561 1563 1564 1566 1568 1570 1571 1573 1574 1576 1577 1578 1580 1581 1582 1583 1585 1586 1586 1587 1588 1589 1590 1590 1591 1592 1593 1594 1594 1595
1531 1533 1535 1537 1540 1542 1545 1547 1550 1552 1555 1556 1559 1560 1562 1563 1565 1567 1568 1570 1572 1573 1575 1576 1578 1579 1580 1581 1583 1584 1585 1585 1586 1587 1588 1589 1590 1591 1591 1592 1593 1593
1528 1529 1531 1534 1537 1539 1542 1545 1547 1549 1551 1553 1555 1557 1559 1561 1562 1564 1566 1567 1569 1571 1572 1574 1575 1576 1578 1579 1580 1581 1582 1583 1584 1585 1586 1587 1588 1589 1590 1591 1591 1592
1524 1527 1529 1532 1534 1537 1539 1541 1543 1545 1547 1550 1552 1554 1556 1558 1559 1561 1563 1564 1566 1567 1569 1571 1572 1573 1575 1576 1578 1579 1580 1581 1582 1583 1584 1585 1586 1587 1588 1589 1589 1590
1523 1525 1527 1529 1532 1534 1536 1538 1540 1542 1545 1547 1548 1550 1552 1554 1556 1558 1560 1561 1563 1564 1566 1567 1568 1570 1571 1573 1575 1576 1577 1578 1580 1581 1582 1583 1584 1585 1585 1586 1587 1588
1521 1523 1525 1527 1529 1531 1533 1535 1537 1539 1542 1543 1545 1547 1549 1551 1553 1555 1556 1557 1559 1560 1562 1564 1565 1566 1568 1570 1572 1573 1575 1576 1577 1578 1579 1580 1581 1582 1583 1584 1585 1586
1518 1520 1522 1524 1525 1527 1529 1532 1534 1536 1538 1540 1542 1544 1546 1547 1549 1551 1552 1554 1555 1557 1558 1559 1561 1562 1564 1567 1569 1570 1572 1573 1574 1575 1576 1577 1578 1579 1580 1581 1583 1584
1515 1517 1519 1520 1522 1523 1525 1528 1531 1533 1535 1537 1538 1540 1542 1544 1545 1546 1548 1550 1552 1553 1554 1555 1557 1559 1561 1563 1565 1567 1568 1569 1570 1572 1573 1574 1575 1576 1577 1578 1580 1581
1512 1514 1515 1517 1518 1520 1522 1525 1527 1529 1531 1533 1534 1537 1539 1540 1541 1543 1544 1546 1548 1549 1550 1552 1553 1555 1557 1559 1561 1563 1564 1566 1567 1568 1569 1570 1571 1573 1574 1575 1577 1578
1509 1511 1512 1514 1516 1518 1520 1522 1524 1525 1527 1529 1531 1533 1535 1536 1537 1539 1540 1542 1543 1545 1546 1548 1549 1551 1553 1555 1556 1558 1560 1562 1563 1564 1565 1566 1568 1569 1570 1572 1573 1575
1505 1507 1509 1511 1513 1515 1517 1518 1520 1522 1523 1525 1527 1529 1530 1532 1533 1535 1536 1537 1539 1540 1542 1543 1544 1547 1549 1550 1552 1554 1556 1557 1559 1560 1561 1562 1564 1565 1567 1568 1570 1571
1501 1503 1505 1507 1509 1511 1513 1514 1516 1517 1519 1522 1523 1525 1526 1528 1529 1530 1531 1532 1534 1536 1537 1538 1540 1542 1544 1545 1547 1550 1552 1553 1555 1556 1557 1558 1560 1562 1563 1564 1566 1567
1499 1499 1501 1503 1505 1507 1509 1510 1512 1514 1516 1518 1520 1521 1522 1523 1524 1526 1527 1528 1530 1531 1532 1533 1534 1537 1539 1541 1543 1545 1547 1549 1551 1552 1554 1555 1556 1558 1559 1560 1562 1562
1497 1498 1499 1500 1502 1503 1505 1506 1508 1510 1512 1514 1516 1517 1518 1520 1521 1522 1523 1524 1525 1526 1527 1528 1529 1532 1535 1537 1539 1541 1543 1545 1547 1548 1550 1551 1552 1554 1555 1556 1557 1558
1493 1494 1496 1497 1498 1500 1501 1503 1505 1507 1509 1511 1512 1513 1514 1516 1517 1518 1519 1519 1520 1521 1523 1524 1525 1527 1530 1532 1535 1537 1539 1541 1543 1544 1545 1547 1548 1550 1551 1552 1553 1554
1488 1490 1492 1494 1495 1497 1498 1500 1502 1504 1505 1507 1508 1509 1510 1512 1513 1514 1514 1515 1516 1517 1518 1519 1521 1523 1525 1527 1530 1532 1534 1536 1538 1539 1541 1542 1544 1545 1547 1548 1549 1550